This is the latest recevied weather packets stored in our database for station/object OE-11149. If no packets are shown the sender has not sent any weather packets the latest 10 day(s).
| Time | Temp. | Humidity | Pressure | Rain* | Wind** | Luminosity | Snow |
|---|---|---|---|---|---|---|---|
| 1788072919 | 12.78° C | 65% | 854.2 hPa | 0 mm | - | 166 W/m² | - |
| 1788072093 | 12.78° C | 65% | 854.2 hPa | 0 mm | - | 225 W/m² | - |
| 1788071720 | 12.78° C | 64% | 854.3 hPa | 0 mm | - | 358 W/m² | - |
| 1788071120 | 12.22° C | 64% | 854.3 hPa | 0 mm | - | 245 W/m² | - |
| 1788070293 | 11.67° C | 69% | 854.3 hPa | 0 mm | - | 172 W/m² | - |
| 1788069919 | 11.67° C | 68% | 854.2 hPa | 0 mm | - | 53 W/m² | - |
| 1788069320 | 11.11° C | 69% | 854.2 hPa | 0 mm | - | 53 W/m² | - |
| 1788068493 | 11.11° C | 70% | 854.2 hPa | 0 mm | - | 46 W/m² | - |
| 1788068120 | 11.11° C | 70% | 854.2 hPa | 0 mm | - | 33 W/m² | - |
| 1788067520 | 11.67° C | 66% | 854 hPa | 0 mm | - | 33 W/m² | - |
| 1788066693 | 11.11° C | 68% | 854.1 hPa | 0 mm | - | 26 W/m² | - |
| 1788066319 | 11.11° C | 69% | 853.9 hPa | 0 mm | - | 13 W/m² | - |
| 1788065719 | 11.11° C | 72% | 853.9 hPa | 0 mm | - | 13 W/m² | - |
| 1788064892 | 11.11° C | 70% | 853.9 hPa | 0 mm | - | 7 W/m² | - |
| 1788064519 | 11.11° C | 70% | 853.9 hPa | 0 mm | - | 0 W/m² | - |
| 1788063919 | 10.56° C | 74% | 853.9 hPa | 0 mm | - | 0 W/m² | - |
| 1788063092 | 10.56° C | 77% | 854.1 hPa | 0 mm | - | 0 W/m² | - |
| 1788062719 | 10.56° C | 79% | 853.9 hPa | 0 mm | - | 0 W/m² | - |
| 1788062119 | 10.56° C | 86% | 854.1 hPa | 0 mm | - | 0 W/m² | - |
| 1788061520 | 10° C | 88% | 854.1 hPa | 0 mm | - | 0 W/m² | - |
| 1788060919 | 10° C | 88% | 854.2 hPa | 0 mm | - | 0 W/m² | - |
| 1788060319 | 10° C | 86% | 854.2 hPa | 0 mm | - | 0 W/m² | - |
| 1788059493 | 10° C | 89% | 854.2 hPa | 0 mm | - | 0 W/m² | - |
| 1788059120 | 10° C | 90% | 854.2 hPa | 0 mm | - | 0 W/m² | - |
| 1788058520 | 10° C | 90% | 854.3 hPa | 0 mm | - | 0 W/m² | - |
* Rain latest hour (hover to see other rain measurements)
** Current wind speed in m/s (hover to see current wind gust speed)